Belize City, Belize

8:17 AM CST on August 20, 2017 (GMT -0600)
Slaughter House Rd, Bze City | | Change Station

Elev 10 ft 17.49 °N, 88.19 °W | Updated 6 seconds ago

Partly Cloudy
Partly Cloudy
78.9 °F
Feels Like 82 °F
N
7.5
Wind Variable Wind from SSE
Gusts 9.0 mph

Today
High -- | Low -- °F
--% Chance of Precip.
Yesterday
High -- | Low -- °F
Precip. -- in
Pressure 29.93 in
Visibility 6.2 miles
Clouds Scattered Clouds 500 ft
Heat Index 82 °F
Dew Point 74 °F
Humidity 85%
Rainfall 0.29 in
Snow Depth Not available.
5:36 AM 6:15 PM
Waning Crescent, 2% visible
METAR MZBZ 201400Z 25003KT 9999 SCT005 26/25 A2993 Q1013 NOSIG
Pressure 29.93 in
Visibility 6.2 miles
Clouds Scattered Clouds 500 ft
Heat Index 82 °F
Dew Point 74 °F
Humidity 85%
Rainfall 0.29 in
Snow Depth Not available.
5:36 AM 6:15 PM
Waning Crescent, 2% visible
METAR MZBZ 201400Z 25003KT 9999 SCT005 26/25 A2993 Q1013 NOSIG

Get Severe Weather Alerts

Thanks for signing up!

Be on the lookout for a verification email in your inbox.

You'll start receiving the daily forecast at 6 AM.

×

10-Day Weather Forecast

No radar image for this location.
×

Almanac

Astronomy

Aug. 20, 2017 Rise Set
Actual Time
Civil Twilight
Nautical Twilight
Astronomical Twilight
Moon
Length of Visible Light
Length of Day
Tomorrow will be .
, % of the Moon is Illuminated

Today's Extremes

Country Highs Country Lows

Community

WunderPhotos

Category 6

Welcome to Category 6. This is the collective home for Weather Underground's featured writeups by Dr. Jeff Masters (right), Bob Henson (left), Chris Burt, and other regular contributors.

Nearby

Air Quality

  Air Quality AQ Index Pollutant
Not available.

Snow Depth

Station Depth Elevation

Earthquake Activity

City Distance Mag. Time & Date
Minimum magnitude displayed is 2.5.

Coastal Water Temperatures

Place Temperature

Stations

Nearby Weather Stations

Station Location Temp. Windchill Dew Point Humidity Wind Precip. Elev Updated Type